Location: Holmes Observatory
(37.1039°N, 122.0513°W)
Time: 23:08:59
(UTC-07:00)

Daily predictions for brighter satellites

Satellite Brightness Start Highest point End
(mag) Time Altitude Azimuth Time Altitude Azimuth Time Altitude Azimuth
NOAA 12 4.1 19:38:27 10° SSE 19:43:45 77° ENE 19:49:04 10° N
CZ-3B DEB 3.4 19:30:14 10° SW 19:44:23 76° SE 19:50:41 10° NE
ATLAS CENTAUR R/B 4.4 19:47:28 10° W 19:48:41 11° WSW 19:49:53 10° SW
Helios 1B rocket 4.0 19:51:19 10° ENE 19:53:39 15° E 19:55:59 10° SE
Cosmos 1437 Rocket 2.9 19:51:40 10° S 19:55:33 55° E 19:59:31 10° NNE
METEOR-M 4.3 19:50:25 10° S 19:55:45 80° WSW 20:01:07 10° NNW
SJ-6B 2.6 19:53:12 10° SSE 19:56:55 70° ENE 20:00:38 10° N
Lacrosse 4 Rocket 1.4 19:56:33 10° SSW 20:00:37 82° WNW 20:04:40 10° NNE
Meteor 1-22 Rocket 4.5 19:56:20 10° SSE 20:01:52 51° E 20:07:37 10° NNE
Resurs 1-3 4.2 20:02:03 10° SE 20:06:03 36° ENE 20:10:04 10° N
Yuri Rocket 4.4 20:02:55 10° SW 20:06:24 25° S 20:09:36 11° SE
Cosmos 1758 4.5 20:13:46 10° SE 20:16:52 22° E 20:19:59 10° NE
Tiangong 1 1.9 20:15:51 10° NW 20:18:37 36° NNE 20:20:12 20° ENE
Spot 2 Rocket 3.6 20:13:47 10° SSE 20:18:45 59° ENE 20:23:48 10° N
Cosmos 2344 3.6 20:12:42 10° SSW 20:20:24 85° ESE 20:28:46 10° NNE
Cosmos 1844 Rocket 3.4 20:15:33 10° SW 20:21:06 57° WNW 20:26:40 10° NNE
Cosmos 2150 Rocket 4.2 20:16:00 10° SSW 20:21:07 73° WNW 20:26:17 10° NNE
In-Cosmos 22 4.4 20:17:06 10° N 20:22:08 41° ENE 20:27:06 10° SSE
Cosmos 1378 3.1 20:19:49 10° N 20:23:36 88° WSW 20:27:19 10° S
Cosmos 1953 3.2 20:23:37 10° SSE 20:27:05 27° E 20:30:34 10° NNE
USA 186 2.8 20:28:06 18° NE 20:28:06 18° NE 20:29:03 10° NNE
FengYun 1-2 T 4.4 20:24:58 10° S 20:30:31 79° WSW 20:36:10 10° NNW
Cosmos 2278 Rocket 2.1 20:24:58 10° SSW 20:30:36 71° ESE 20:36:16 10° NNE
H-2A R/B 2.7 20:27:48 10° SSE 20:31:40 89° ENE 20:35:36 10° NNW
Cosmos 1833 Rocket 4.1 20:29:07 10° N 20:33:02 19° NE 20:34:24 17° ENE
USA 215 3.3 20:27:12 10° NE 20:33:40 61° SE 20:40:05 10° SSW
Okean 3 Rocket 3.9 20:29:41 10° N 20:33:53 44° E 20:36:56 17° SE
Cosmos 990 Rocket 4.2 20:29:09 10° SSW 20:34:22 74° WNW 20:39:39 10° NNE
Envisat 3.8 20:34:42 23° ESE 20:36:46 31° ENE 20:41:12 10° N
Cosmos 1934 Rocket 4.1 20:33:41 10° S 20:39:50 76° W 20:45:57 10° N
FENGYUN 3A 4.3 20:34:45 10° S 20:40:03 58° W 20:45:24 10° NNW
SAR-Lupe-1 4.4 20:39:57 34° ESE 20:40:53 42° ENE 20:44:17 10° N
Cosmos 1125 Rocket 3.8 20:37:29 10° S 20:42:19 41° ESE 20:47:11 10° NNE
Cosmos 2297 4.1 20:37:51 10° S 20:43:05 39° ESE 20:48:22 10° NE
CZ-4B DEB 3.9 20:46:52 27° NE 20:46:52 27° NE 20:48:51 10° N
Meteor 1-24 Rocket 4.0 20:42:45 10° NNW 20:48:12 68° W 20:53:49 10° S
Meteor 1-4 Rocket 2.6 20:48:51 47° E 20:48:51 47° E 20:51:59 10° NNE
Cosmos 1544 2.9 20:47:03 10° S 20:50:40 74° E 20:54:19 10° N
Cosmos 1766 4.3 20:48:06 10° SSW 20:51:49 46° W 20:55:35 10° N
ALOS 3.9 20:48:53 10° SSW 20:53:09 35° W 20:57:26 10° NNW
Geosat 4.5 20:48:24 10° NNE 20:53:22 62° WNW 20:58:18 10° SW
GP-B 3.3 20:52:13 35° SE 20:53:39 48° E 20:57:56 10° N
Resurs 01 Rocket 2.5 20:50:32 10° S 20:54:48 50° W 20:59:07 10° NNW
SL-27 R/B 2.8 20:52:39 10° NNW 20:56:12 65° WSW 20:58:00 27° S
RESURS DK-1 2.3 20:52:14 10° NNW 20:56:23 86° WSW 20:58:05 35° SSE
Meteor 1-29 2.8 20:56:07 10° NNE 20:59:35 74° ESE 21:00:09 57° SSE
Cosmos 2082 Rocket 2.8 20:57:37 10° N 21:02:50 36° ENE 21:03:31 35° ENE
ERS-1 Rocket 3.9 21:03:31 30° ENE 21:03:31 30° ENE 21:07:29 10° N
Cosmos 1818 3.9 21:00:36 10° NNW 21:05:48 44° NE 21:06:41 41° E
Lacrosse 5 2.9 21:06:10 10° WSW 21:11:02 46° NW 21:15:55 10° NNE
Cosmos 1766 Rocket 3.8 21:08:21 10° N 21:12:21 53° ENE 21:12:21 53° ENE
Cosmos 1076 Rocket 3.3 21:08:52 10° N 21:13:07 81° E 21:13:29 72° SE
Delta 2 Rocket 3.7 21:09:52 10° W 21:14:15 51° SSW 21:14:18 51° SSW
Timation 1 Rocket 4.3 21:09:19 10° SSW 21:15:21 88° WNW 21:21:24 10° NNE
Cosmos 2100 Rocket 4.0 21:13:07 23° SSE 21:17:06 61° E 21:23:20 10° NNE
Cosmos 1269 Rocket 4.0 21:15:43 10° N 21:20:56 58° ENE 21:21:03 58° ENE
Cosmos 2098 Rocket 4.4 21:14:14 10° S 21:21:07 81° W 21:28:46 10° N
Meteor 1-21 Rocket 4.3 21:22:44 10° N 21:28:35 85° W 21:30:51 40° S
Helios 1B rocket 3.9 21:25:15 10° N 21:29:05 38° WNW 21:32:53 10° SW
Helios 1A 4.1 21:27:24 27° SSW 21:29:07 41° W 21:33:05 10° NNW
Cosmos 1674 4.1 21:26:26 10° N 21:28:28 30° N 21:28:28 30° N
Cosmos-2242 4.3 21:35:33 32° N 21:35:33 32° N 21:37:52 10° N
Cosmos 1802 Rocket 3.8 21:34:35 65° E 21:34:39 65° E 21:40:44 10° NNE
Cosmos 1867 3.6 21:33:07 10° SW 21:38:33 77° WNW 21:44:02 10° NNE
Cosmos 2061 Rocket 3.9 21:41:04 51° S 21:42:50 84° E 21:49:17 10° N
Timation 2 Rocket 3.9 21:43:48 10° NNW 21:49:45 70° NE 21:49:45 70° NE
CZ-3B DEB 4.3 21:50:06 10° W 21:57:16 25° NW 22:01:04 11° NNE
H-2A R/B 4.1 22:07:10 18° NNE 22:07:10 18° NNE 22:08:41 10° N
BREEZE-M DEB (TANK) 4.0 22:08:47 10° WSW 22:12:56 66° NNW 22:29:05 10° ENE
USA 215 4.4 22:10:28 10° NNE 22:16:26 39° NNW 22:22:23 10° W
Cosmos 1833 Rocket 3.5 22:11:50 10° NNW 22:16:08 48° WNW 22:16:08 48° WNW
Cosmos 2082 Rocket 4.0 22:41:56 10° NW 22:45:25 26° W 22:45:25 26° W
USA 267 4.1 22:49:22 44° NNW 22:49:22 44° NNW 22:53:43 10° NW
